DW8248 Weather Reports


time (UTC)temp
C
wind
direction
speed
KPH
gust
KPH
rain 1hr
cm
rain 24hr
cm
rain mn
cm
humidity
%
barometer
mb
20181021044052 26 257 11.3 14.5 0.00 0.00 0.00 86 1015.4
20181021043048 26 254 9.7 12.9 0.00 0.00 0.00 87 1015.4
20181021042020 26 254 8.0 11.3 0.00 0.00 0.00 87 1015.5
20181021041013 26 243 8.0 11.3 0.00 0.00 0.00 87 1015.5
20181021035955 26 244 8.0 11.3 0.00 0.00 0.00 87 1015.6
20181021034951 26 249 8.0 11.3 0.00 0.00 0.00 87 1015.6
20181021034001 26 236 8.0 12.9 0.00 0.00 0.00 86 1015.7
20181021032938 26 238 8.0 12.9 0.00 0.00 0.00 86 1015.7
20181021031916 26 248 8.0 12.9 0.00 0.00 0.00 86 1015.9
20181021030841 26 255 11.3 14.5 0.00 0.00 0.00 85 1015.9
20181021025839 26 257 12.9 16.1 0.00 0.00 0.00 85 1015.9
20181021024849 26 261 12.9 20.9 0.00 0.00 0.00 85 1015.8
20181021023905 26 259 16.1 20.9 0.00 0.00 0.00 85 1015.9
20181021022836 26 252 12.9 30.6 0.00 0.00 0.00 85 1015.7
20181021021817 26 202 20.9 30.6 0.00 0.00 0.00 85 1015.5
20181021020819 26 178 11.3 17.7 0.00 0.00 0.00 86 1015.2
20181021015750 26 171 12.9 17.7 0.00 0.00 0.00 86 1015.1
20181021014806 26 182 11.3 17.7 0.00 0.00 0.00 84 1014.9
20181021013811 27 179 11.3 16.1 0.00 0.00 0.00 83 1015.0
20181021012739 27 175 8.0 14.5 0.00 0.00 0.00 81 1014.9
20181021011725 27 153 8.0 14.5 0.00 0.00 0.00 80 1014.9
20181021010728 27 163 4.8 11.3 0.00 0.00 0.00 81 1014.8
20181021005744 27 148 6.4 11.3 0.00 0.00 0.00 80 1014.7
20181021004801 27 148 4.8 11.3 0.00 0.00 0.00 80 1014.7
20181021003807 27 143 4.8 11.3 0.00 0.00 0.00 80 1014.7
20181021002742 27 145 4.8 9.7 0.00 0.00 0.00 80 1014.5
20181021001744 27 155 4.8 9.7 0.00 0.00 0.00 80 1014.5
20181021000719 27 148 3.2 11.3 0.00 0.00 0.00 79 1014.4
20181020235709 27 130 4.8 11.3 0.00 0.00 0.00 78 1014.3
20181020234729 27 130 4.8 9.7 0.00 0.00 0.00 77 1014.2
20181020233702 27 143 3.2 6.4 0.00 0.00 0.00 77 1014.2
20181020232706 27 136 3.2 9.7 0.00 0.00 0.00 77 1014.2
20181020231634 27 145 4.8 9.7 0.00 0.00 0.00 77 1014.1
20181020230618 27 138 4.8 9.7 0.00 0.00 0.00 77 1014.0
20181020225622 27 125 3.2 9.7 0.00 0.00 0.00 76 1013.9
20181020224551 27 130 3.2 11.3 0.00 0.00 0.00 76 1013.9
20181020223520 27 120 4.8 11.3 0.00 0.00 0.00 75 1013.8
20181020222518 28 136 4.8 9.7 0.00 0.00 0.00 75 1013.8
20181020221532 28 132 4.8 9.7 0.00 0.00 0.00 75 1013.8
20181020220521 28 134 6.4 11.3 0.00 0.00 0.00 75 1013.7
20181020215508 28 131 4.8 12.9 0.00 0.00 0.00 75 1013.7
20181020214519 28 108 6.4 12.9 0.00 0.00 0.00 75 1013.8
20181020213517 28 106 4.8 9.7 0.00 0.00 0.00 74 1013.9
20181020212525 28 123 4.8 11.3 0.00 0.00 0.00 74 1013.8
20181020211459 28 136 6.4 12.9 0.00 0.00 0.00 73 1013.9
20181020210456 28 115 6.4 12.9 0.00 0.00 0.00 73 1013.9
20181020205442 28 101 6.4 12.9 0.00 0.00 0.00 72 1013.9
20181020204426 28 81 4.8 12.9 0.00 0.00 0.00 73 1014.0
20181020203427 28 66 4.8 11.3 0.00 0.00 0.00 73 1014.1
20181020202437 28 113 6.4 12.9 0.00 0.00 0.00 74 1014.1
20181020201432 28 111 4.8 12.9 0.00 0.00 0.00 73 1014.2
20181020200417 28 107 6.4 12.9 0.00 0.00 0.00 74 1014.3
20181020195418 28 99 6.4 12.9 0.00 0.00 0.00 74 1014.4
20181020194347 28 96 6.4 14.5 0.00 0.00 0.00 74 1014.4
20181020193356 28 94 6.4 14.5 0.00 0.00 0.00 73 1014.5
20181020192323 28 101 6.4 14.5 0.00 0.00 0.00 74 1014.6
20181020191335 28 61 4.8 12.9 0.00 0.00 0.00 72 1014.7
20181020190350 28 93 4.8 14.5 0.00 0.00 0.00 73 1014.8
20181020185332 28 90 8.0 14.5 0.00 0.00 0.00 74 1014.8
20181020184350 28 78 6.4 12.9 0.00 0.00 0.00 74 1015.0
20181020183315 28 110 4.8 12.9 0.00 0.00 0.00 74 1015.3
20181020182308 28 101 6.4 16.1 0.00 0.00 0.00 73 1015.4
20181020181315 28 73 4.8 16.1 0.00 0.00 0.00 75 1015.5
20181020180320 28 80 8.0 14.5 0.00 0.00 0.00 74 1015.7
20181020175327 28 82 4.8 12.9 0.00 0.00 0.00 74 1016.0
20181020174304 28 53 6.4 12.9 0.00 0.00 0.00 72 1016.2
20181020173259 28 35 6.4 12.9 0.00 0.00 0.00 73 1016.4
20181020172225 28 94 4.8 12.9 0.00 0.00 0.00 73 1016.7
20181020171235 28 86 6.4 12.9 0.00 0.00 0.00 73 1016.9
20181020170204 29 44 3.2 11.3 0.00 0.00 0.00 71 1017.0
20181020165133 30 71 3.2 9.7 0.00 0.00 0.00 68 1017.3
20181020164145 31 91 0.0 8.0 0.00 0.00 0.00 64 1017.5
20181020163129 31 288 0.0 0.0 0.00 0.00 0.00 59 1017.6
20181020162057 31 288 0.0 0.0 0.00 0.00 0.00 63 1017.8
20181020161022 30 288 0.0 4.8 0.00 0.00 0.00 66 1017.9
20181020160016 28 233 0.0 0.0 0.00 0.00 0.00 69 1018.1
20181020154951 28 233 0.0 0.0 0.00 0.00 0.00 71 1018.2
20181020153936 28 261 0.0 3.2 0.00 0.00 0.00 71 1018.4
20181020152903 28 276 0.0 0.0 0.00 0.00 0.00 73 1018.4
20181020151853 28 276 1.6 1.6 0.00 0.00 0.00 73 1018.4
20181020150820 27 269 0.0 3.2 0.00 0.00 0.00 74 1018.7
20181020145800 27 269 0.0 3.2 0.00 0.00 0.00 76 1018.7
20181020144807 27 269 3.2 8.0 0.00 0.00 0.00 78 1018.8
20181020143800 27 296 1.6 4.8 0.00 0.00 0.00 80 1018.8
20181020142818 27 277 1.6 4.8 0.00 0.00 0.00 82 1018.8
20181020141804 26 277 3.2 8.0 0.00 0.00 0.00 83 1018.8
20181020140802 26 267 3.2 8.0 0.00 0.00 0.00 83 1018.8
20181020135733 26 284 3.2 8.0 0.00 0.00 0.00 83 1018.9
20181020134731 26 285 4.8 9.7 0.00 0.00 0.00 85 1018.8
20181020133705 26 288 6.4 9.7 0.00 0.00 0.00 85 1018.6
20181020132634 26 292 4.8 9.7 0.00 0.00 0.00 85 1018.5
20181020131627 26 296 4.8 6.4 0.00 0.00 0.00 86 1018.3
20181020130603 26 295 4.8 6.4 0.00 0.00 0.00 88 1018.2
20181020125527 25 294 4.8 6.4 0.00 0.00 0.00 90 1018.1
20181020124548 25 301 4.8 6.4 0.00 0.00 0.00 91 1017.9
20181020123542 25 293 3.2 9.7 0.00 0.00 0.00 92 1018.0
20181020122544 25 295 4.8 9.7 0.00 0.00 0.00 92 1017.9
20181020121544 25 303 6.4 11.3 0.00 0.00 0.00 93 1017.9
20181020120532 25 306 8.0 9.7 0.00 0.00 0.00 93 1017.8
20181020115512 25 296 6.4 9.7 0.00 0.00 0.00 93 1017.8
20181020114514 25 299 6.4 9.7 0.00 0.00 0.00 93 1017.7
20181020113436 25 291 4.8 6.4 0.00 0.00 0.00 93 1017.7
20181020112457 25 296 6.4 11.3 0.00 0.00 0.00 92 1017.6
20181020111439 25 302 8.0 11.3 0.00 0.00 0.00 92 1017.7
20181020110455 25 294 9.7 11.3 0.00 0.00 0.00 92 1017.7
20181020105431 25 296 6.4 11.3 0.00 0.00 0.00 92 1017.6
20181020104411 25 293 6.4 11.3 0.00 0.00 0.00 92 1017.5
20181020103409 25 300 8.0 11.3 0.00 0.00 0.00 92 1017.5
20181020102338 25 300 6.4 9.7 0.00 0.00 0.00 91 1017.4
20181020101333 25 297 6.4 9.7 0.00 0.00 0.00 91 1017.4
20181020100352 25 296 4.8 9.7 0.00 0.00 0.00 91 1017.4
20181020095345 25 299 8.0 11.3 0.00 0.00 0.00 91 1017.4
20181020094318 25 295 9.7 11.3 0.00 0.00 0.00 91 1017.4
20181020093241 25 306 8.0 11.3 0.00 0.00 0.00 91 1017.3
20181020092232 25 302 9.7 12.9 0.00 0.00 0.00 91 1017.3
20181020091156 25 312 9.7 12.9 0.00 0.00 0.00 91 1017.3
20181020090138 25 309 8.0 12.9 0.00 0.00 0.00 91 1017.1
20181020085107 25 306 8.0 12.9 0.00 0.00 0.00 91 1017.1
20181020084048 25 322 8.0 11.3 0.00 0.00 0.00 91 1017.1
20181020083024 25 308 8.0 11.3 0.00 0.00 0.00 91 1017.1
20181020082014 25 302 8.0 11.3 0.00 0.00 0.00 91 1017.1
20181020080941 25 286 4.8 8.0 0.00 0.00 0.00 91 1017.1
20181020075933 25 286 4.8 9.7 0.00 0.00 0.00 90 1017.2
20181020074939 25 304 4.8 9.7 0.00 0.00 0.00 90 1017.3
20181020073918 25 295 4.8 6.4 0.00 0.00 0.00 90 1017.3
20181020072855 25 284 3.2 4.8 0.00 0.00 0.00 89 1017.5
20181020071906 25 292 1.6 4.8 0.00 0.00 0.00 89 1017.5
20181020070925 25 300 3.2 6.4 0.00 0.00 0.00 89 1017.6
20181020065854 25 294 4.8 8.0 0.00 0.00 0.00 89 1017.7
20181020064836 25 284 4.8 8.0 0.00 0.00 0.00 89 1017.8
20181020063809 25 295 4.8 9.7 0.00 0.00 0.00 88 1017.9
20181020062805 25 300 6.4 9.7 0.00 0.00 0.00 88 1018.1
20181020061744 25 295 6.4 9.7 0.00 0.00 0.00 88 1018.2
20181020060744 25 287 8.0 9.7 0.00 0.00 0.00 88 1018.3
20181020055741 26 279 6.4 9.7 0.00 0.00 0.00 88 1018.4
20181020054731 26 279 6.4 9.7 0.00 0.00 0.00 87 1018.4
20181020053703 26 268 6.4 9.7 0.00 0.00 0.00 86 1018.4
20181020052723 26 254 3.2 6.4 0.00 0.00 0.00 85 1018.4
20181020051724 26 146 0.0 0.0 0.00 0.00 0.00 83 1018.5
20181020050739 26 146 0.0 0.0 0.00 0.00 0.00 83 1018.6
20181020045802 26 146 1.6 3.2 0.00 0.00 0.00 82 1018.5